Location: Newark
(14.6561°N, 91.2669°W)
Time: 08:35:03
(UTC+00:00)

Envisat - Visible Passes

Search period start: 24 September 2019 00:00
Search period end: 04 October 2019 00:00
Orbit: 764 x 766 km, 98.1° (Epoch: 24 September)

Date Brightness Start Highest point End Pass type
(mag) Time Alt. Az. Time Alt. Az. Time Alt. Az.
24 Sep 6.1 01:48:13 10° WSW 01:50:05 12° W 01:51:56 10° WNW visible
25 Sep 4.7 01:08:44 10° SSW 01:13:17 33° W 01:17:50 10° NW visible
26 Sep 3.0 00:31:29 10° SSE 00:36:34 86° E 00:41:38 10° N visible
27 Sep 5.9 01:35:40 10° SW 01:38:48 17° W 01:41:57 10° WNW visible
28 Sep 4.1 00:57:12 10° S 01:02:02 45° W 01:06:52 10° NNW visible
29 Sep 3.0 00:20:20 10° SSE 00:25:21 64° ENE 00:30:21 10° N visible
30 Sep 5.4 01:23:39 10° SSW 01:27:32 22° W 01:31:26 10° NW visible
01 Oct 3.5 00:45:47 10° S 00:50:47 62° WSW 00:55:48 10° NNW visible
02 Oct 3.3 00:09:17 10° SSE 00:14:07 47° ENE 00:18:57 10° N visible
02 Oct 6.3 01:52:19 10° WSW 01:53:04 10° W 01:53:49 10° W visible
03 Oct 4.9 01:11:53 10° SSW 01:16:16 30° W 01:20:41 10° NW visible
